Location: Eaton Estates
(41.3089°N, 82.0057°W)
Time: 00:58:38
(UTC+00:00)

Cosmos 2263 Rocket - Pass Details

Date: 17 June 2021
Orbit: 822 x 850 km, 71.0° (Epoch: 02 August)

Event Time Altitude Azimuth Distance (km) Brightness Sun altitude
Rises 01:52:44 0° 335° (NNW) 3,417 6.7 -8.2°
Reaches altitude 10° 01:55:11 10° 336° (NNW) 2,481 5.9 -8.6°
Maximum altitude 02:00:54 87° 250° (WSW) 856 2.3 -9.3°
Drops below altitude 10° 02:06:35 10° 159° (SSE) 2,467 4.1 -10.1°
Enters shadow 02:06:40 10° 159° (SSE) 2,498 4.1 -10.1°
